Weather History for KABR - May, 2013

Change the Weather History Date:

Wednesday, May 22, 2013

  Actual Average Record
Temperature  
Mean Temperature 54 °F 58 °F  
Max Temperature 63 °F 70 °F 92 °F (1928)
Min Temperature 45 °F 46 °F 22 °F (1963)
Degree Days  
Heating Degree Days 11 7  
Month to date heating degree days 247 230  
Since 1 July heating degree days 8952 8401  
Cooling Degree Days 0 1  
Month to date cooling degree days 17 12  
Year to date cooling degree days 17 14  
Growing Degree Days 4 (Base 50)    
Moisture  
Dew Point 46 °F    
Average Humidity 77    
Maximum Humidity 93    
Minimum Humidity 60    
Precipitation  
Precipitation T in 0.10 in 1.23 in (2010)
Month to date precipitation 3.10 2.25  
Year to date precipitation 7.30 6.28  
Sea Level Pressure  
Sea Level Pressure 29.92 in    
Wind  
Wind Speed 13 mph (NNE)    
Max Wind Speed 26 mph    
Max Gust Speed 36 mph    
Visibility 10 miles    
Events Rain    
T = Trace of Precipitation, MM = Missing Value Source: NWS Daily Summary

Daily Weather History Graph

Daily Weather History Graph

Search for Another Location

Airport or City:

Trip Planner

Search our weather history database for the weather conditions in past years. The results will help you decide how hot, cold, wet, or windy it might be!

Date:

Astronomy

May. 22, 2013 Rise Set
Actual Time 5:55 AM CDT 9:05 PM CDT
Civil Twilight 5:20 AM CDT 9:41 PM CDT
Nautical Twilight 4:34 AM CDT 10:27 PM CDT
Astronomical Twilight 3:38 AM CDT 11:24 PM CDT
Moon 6:23 PM CDT (5/22) 4:09 AM CDT (5/22)
Length of Visible Light 16h 21m
Length of Day
15h 09m
Waxing Gibbous, 91% of the Moon is Illuminated
May 22
Waxing Gibbous
May 24
Full
May 31
Last Quarter
Jun 8
New
Jun 16
First Quarter

Hourly Weather History & Observations

Time (CDT) Temp. Windchill Dew Point Humidity Pressure Visibility Wind Dir Wind Speed Gust Speed Precip Events Conditions
12:53 AM 48.0 °F - 44.1 °F 86% 29.86 in 10.0 mi NNE 12.7 mph - 0.01 in Rain Light Rain
1:29 AM 46.4 °F 40.7 °F 44.6 °F 93% 29.84 in 5.0 mi NNE 12.7 mph 19.6 mph 0.00 in   Overcast
1:53 AM 46.9 °F - 44.1 °F 90% 29.85 in 10.0 mi NNE 11.5 mph - 0.00 in   Overcast
2:02 AM 46.4 °F 41.5 °F 44.6 °F 93% 29.83 in 10.0 mi NNE 10.4 mph - N/A   Overcast
2:11 AM 46.4 °F 41.5 °F 44.6 °F 93% 29.83 in 10.0 mi North 10.4 mph - 0.00 in Rain Light Rain
2:27 AM 46.4 °F 41.5 °F 44.6 °F 93% 29.83 in 10.0 mi North 10.4 mph - 0.00 in   Overcast
2:53 AM 48.0 °F - 44.1 °F 86% 29.84 in 10.0 mi North 11.5 mph - 0.00 in   Overcast
3:08 AM 46.4 °F 42.4 °F 44.6 °F 93% 29.83 in 10.0 mi North 8.1 mph - N/A   Overcast
3:53 AM 46.9 °F - 44.1 °F 90% 29.86 in 10.0 mi North 10.4 mph - N/A   Overcast
4:53 AM 46.9 °F - 44.1 °F 90% 29.86 in 10.0 mi NNE 13.8 mph - 0.00 in   Overcast
5:53 AM 46.9 °F - 44.1 °F 90% 29.87 in 10.0 mi NNE 10.4 mph - N/A   Overcast
6:08 AM 46.4 °F 40.1 °F 44.6 °F 93% 29.86 in 10.0 mi NNE 15.0 mph - N/A   Overcast
6:30 AM 46.4 °F 41.5 °F 44.6 °F 93% 29.86 in 10.0 mi NNE 10.4 mph - N/A   Overcast
6:53 AM 46.9 °F - 44.1 °F 90% 29.88 in 10.0 mi NNE 11.5 mph - N/A   Overcast
7:15 AM 46.4 °F 40.7 °F 44.6 °F 93% 29.86 in 10.0 mi NNE 12.7 mph - N/A   Overcast
7:53 AM 46.9 °F - 43.0 °F 86% 29.88 in 10.0 mi NNE 15.0 mph - N/A   Overcast
8:53 AM 48.0 °F - 44.1 °F 86% 29.89 in 10.0 mi NNE 13.8 mph - N/A   Overcast
9:53 AM 48.9 °F - 44.1 °F 83% 29.91 in 10.0 mi NNE 15.0 mph 21.9 mph N/A   Overcast
10:53 AM 50.0 °F - 44.1 °F 80% 29.92 in 10.0 mi NNE 15.0 mph 20.7 mph N/A   Overcast
11:53 AM 51.1 °F - 44.1 °F 77% 29.93 in 10.0 mi NNE 15.0 mph - N/A   Overcast
12:53 PM 52.0 °F - 46.0 °F 80% 29.94 in 10.0 mi North 17.3 mph 23.0 mph N/A   Overcast
1:29 PM 53.6 °F - 46.4 °F 77% 29.93 in 10.0 mi NNE 12.7 mph 25.3 mph N/A   Overcast
1:53 PM 54.0 °F - 46.9 °F 77% 29.95 in 10.0 mi NNE 16.1 mph 23.0 mph N/A   Overcast
2:07 PM 55.4 °F - 46.4 °F 72% 29.93 in 10.0 mi NNE 13.8 mph - N/A   Overcast
2:53 PM 57.0 °F - 48.0 °F 72% 29.95 in 10.0 mi NNE 15.0 mph - N/A   Overcast
3:13 PM 59.0 °F - 48.2 °F 67% 29.94 in 10.0 mi NE 17.3 mph 23.0 mph N/A   Overcast
3:53 PM 62.1 °F - 50.0 °F 65% 29.95 in 10.0 mi NE 21.9 mph 31.1 mph N/A   Mostly Cloudy
4:34 PM 60.8 °F - 50.0 °F 68% 29.95 in 10.0 mi NE 15.0 mph 25.3 mph N/A   Overcast
4:53 PM 61.0 °F - 50.0 °F 67% 29.97 in 10.0 mi NE 20.7 mph 26.5 mph N/A   Overcast
5:11 PM 60.8 °F - 50.0 °F 68% 29.97 in 10.0 mi ENE 20.7 mph - N/A   Overcast
5:53 PM 63.0 °F - 50.0 °F 63% 29.99 in 10.0 mi NE 18.4 mph 26.5 mph N/A   Scattered Clouds
6:53 PM 61.0 °F - 48.0 °F 62% 30.01 in 10.0 mi ENE 21.9 mph 26.5 mph N/A   Clear
7:53 PM 60.1 °F - 46.9 °F 62% 30.04 in 10.0 mi East 9.2 mph - N/A   Clear
8:53 PM 55.9 °F - 46.9 °F 72% 30.05 in 10.0 mi Calm Calm - N/A   Clear
9:53 PM 50.0 °F - 46.0 °F 86% 30.08 in 10.0 mi West 3.5 mph - N/A   Clear
10:53 PM 46.9 °F - 45.0 °F 93% 30.10 in 10.0 mi West 5.8 mph - N/A   Clear
11:53 PM 46.0 °F 44.8 °F 44.1 °F 93% 30.13 in 10.0 mi WSW 3.5 mph - N/A   Clear